Location: Carri�res
(48.9069°N, 2.1792°E)
Time: 11:31:42
(UTC+00:00)

deb Kosmos- 1898 - Pass Details

Date: 30 July 2021
Orbit: 731 x 754 km, 74.0° (Epoch: 18 September)

Event Time Altitude Azimuth Distance (km) Brightness Sun altitude
Exits shadow 02:01:50 21° 170° (S) 1,624 ? -17.2°
Maximum altitude 02:04:57 47° 106° (ESE) 982 ? -16.9°
Drops below altitude 10° 02:09:52 10° 33° (NNE) 2,277 ? -16.5°
Sets 02:12:18 0° 28° (NNE) 3,209 ? -16.3°
